CDT,Max TemperatureF,Mean TemperatureF,Min TemperatureF,Max Dew PointF,MeanDew PointF,Min DewpointF,Max Humidity, Mean Humidity, Min Humidity, Max Sea Level PressureIn, Mean Sea Level PressureIn, Min Sea Level PressureIn, Max VisibilityMiles, Mean VisibilityMiles, Min VisibilityMiles, Max Wind SpeedMPH, Mean Wind SpeedMPH, Max Gust SpeedMPH,PrecipitationIn, CloudCover, Events, WindDirDegrees
2013-3-1,30,20,7,19,14,3,84,67,54,30.28,30.24,30.17,10,9,2,14,8,,0.00,6,Snow,4
2013-3-2,30,15,0,10,3,-3,88,66,35,30.31,30.26,30.20,10,10,7,10,2,,0.00,0,,307
2013-3-3,30,15,0,12,4,-6,83,63,38,30.20,30.14,30.09,10,10,8,9,1,,0.00,0,,105
2013-3-4,30,23,16,23,18,8,78,72,65,30.12,30.05,30.00,10,8,2,16,9,,0.00,7,Snow,93
2013-3-5,30,28,26,25,24,21,93,82,74,30.16,29.98,29.91,10,2,0,15,9,21,0.18,8,Fog-Snow,22
2013-3-6,30,19,3,21,18,0,88,73,64,30.35,30.29,30.18,10,10,5,12,7,20,0.00,7,,309
2013-3-7,34,17,0,19,7,-6,92,75,52,30.45,30.41,30.36,10,8,6,9,0,,0.00,0,Snow,80
2013-3-8,37,22,8,25,15,7,92,79,57,30.46,30.40,30.25,9,5,0,15,4,,0.00,0,Fog,112
2013-3-9,39,36,33,36,32,24,93,84,70,30.23,29.92,29.76,7,4,2,14,9,17,0.45,8,Rain,120
2013-3-10,39,37,35,37,35,31,100,92,83,29.80,29.72,29.65,10,3,0,15,5,23,0.48,8,Fog-Rain,56
2013-3-11,35,32,30,31,28,24,89,82,73,29.80,29.65,29.60,10,8,3,18,7,23,0.00,8,Snow,327
2013-3-12,30,27,24,27,22,17,86,76,64,30.07,29.89,29.80,10,4,1,17,10,22,0.00,8,Snow,282
2013-3-13,33,27,21,19,12,6,74,58,35,30.34,30.24,30.07,10,9,2,13,10,20,0.00,2,Snow,300
2013-3-14,35,28,21,28,22,15,93,81,71,30.33,30.21,30.07,10,6,0,12,4,,0.03,5,Fog-Snow,117
2013-3-15,36,30,26,32,29,23,96,90,81,30.02,29.90,29.80,4,2,1,16,3,,0.17,7,Rain,90
2013-3-16,32,28,24,27,20,17,85,73,61,30.18,30.02,29.82,10,10,9,14,10,,0.00,7,,345
2013-3-17,30,24,19,20,15,8,72,64,58,30.27,30.16,29.99,10,10,10,17,10,,0.00,0,,78
2013-3-18,33,25,17,30,23,9,100,83,63,29.97,29.70,29.58,10,4,0,24,9,32,0.17,7,Fog-Snow,209
2013-3-19,28,20,12,10,7,3,71,59,43,30.11,29.96,29.77,10,10,5,23,18,32,0.00,3,Snow,278
2013-3-20,21,15,9,10,3,-3,73,58,50,30.15,30.11,30.07,10,10,3,18,13,24,0.00,2,Snow,292
2013-3-21,28,18,7,12,7,3,84,64,41,30.12,30.08,30.03,10,10,10,9,5,,0.00,0,,270
2013-3-22,37,22,9,22,13,6,88,68,39,30.09,30.07,30.03,10,10,7,5,2,,0.00,0,,247
2013-3-23,39,29,19,23,20,17,89,68,45,30.15,30.10,30.06,10,10,7,12,2,,0.00,0,,110
2013-3-24,33,32,30,27,25,20,86,76,64,30.07,29.91,29.83,10,6,1,17,10,24,0.00,8,Snow,26
2013-3-25,36,30,26,23,21,17,72,63,56,30.14,30.00,29.87,10,10,10,15,10,22,0.00,5,,337
2013-3-26,42,36,30,24,21,18,67,56,46,30.28,30.22,30.15,10,10,10,14,7,17,0.00,8,,319
2013-3-27,45,37,28,25,23,19,82,61,37,30.34,30.31,30.28,10,10,10,8,5,,0.00,5,,274
2013-3-28,48,35,24,29,23,18,89,65,33,30.37,30.33,30.29,10,10,8,5,2,,0.00,3,,257
2013-3-29,53,40,28,31,25,18,92,65,28,30.35,30.28,30.21,10,10,8,6,1,,0.00,1,,150
2013-3-30,51,43,35,43,37,27,100,79,56,30.20,29.94,29.84,10,6,2,16,7,24,0.02,8,Rain,235
2013-3-31,42,38,33,38,32,15,96,80,43,29.96,29.81,29.77,10,5,2,21,6,29,0.00,7,Rain,276